Wind_Speed
6 5 4 4 5 6 8 9 10 10 10 9 7 6 5 4 2 3 3 3 1 1 4 7 8 7 3 3 3 3 3 3 3 3 4 5 6 7 7 7 7 6 6
6 5 4 4 5 6 7 8 10 10 11 10 9 8 7 6 5 4 3 3 3 3 4 6 8 7 4 2 4 5 4 3 3 3 3 4 5 5 5 6 6 5 5
7 7 6 6 6 6 6 7 9 10 10 10 10 9 9 8 7 6 5 5 6 6 6 6 6 6 4 1 3 5 5 4 2 1 2 2 3 4 4 4 4 4 4
7 7 7 6 6 6 6 7 8 9 9 10 10 11 11 10 9 8 8 8 9 10 10 8 7 6 5 2 1 3 4 5 4 2 2 2 1 2 3 3 3 4 5
7 7 7 7 7 7 8 8 8 9 9 10 11 12 13 13 12 12 12 12 12 13 13 12 10 8 7 6 4 2 2 3 4 4 3 3 3 3 3 3 4 4 5
9 9 9 10 11 11 11 11 11 12 12 12 13 14 16 16 17 17 17 16 17 16 16 16 15 13 11 9 8 7 5 4 4 5 5 5 5 5 5 5 5 6 6
12 12 12 13 14 15 15 16 16 16 17 17 17 18 19 20 21 21 21 21 21 21 20 19 19 18 16 14 13 12 11 9 8 7 7 7 8 8 8 8 8 7 8
14 15 17 17 18 19 20 21 22 22 22 22 22 22 22 24 25 25 25 24 24 24 24 23 23 22 21 20 19 17 16 16 14 13 11 11 10 11 11 12 12 11 9
17 19 21 22 23 24 26 28 29 29 29 28 28 27 27 28 28 29 28 28 27 26 26 26 26 26 25 25 24 23 21 21 20 19 17 16 15 14 15 14 14 15 14
21 23 25 27 28 29 30 32 33 34 34 34 33 32 31 31 31 31 31 30 29 29 28 28 28 29 29 28 28 28 26 25 25 25 24 22 20 20 19 19 18 18 17
24 27 29 30 31 32 34 35 35 35 37 37 37 35 35 34 33 33 32 31 31 30 29 29 30 30 30 30 30 30 29 29 29 30 29 28 26 25 24 23 22 21 20
28 29 31 32 32 33 35 35 35 35 37 38 38 37 37 36 35 35 33 32 32 31 30 30 31 31 30 30 31 32 31 31 32 31 30 27 26 26 27 26 25 24 23
30 31 33 34 33 34 34 33 33 33 35 37 38 38 39 38 37 37 35 33 33 32 31 31 32 31 31 31 31 31 31 30 29 27 24 23 22 23 25 26 27 26 26
31 32 33 34 33 33 32 32 32 31 32 34 36 39 40 40 40 39 37 34 33 32 31 31 32 32 32 31 31 30 29 28 26 25 22 20 19 19 20 22 24 25 27
31 32 32 32 33 34 33 32 32 31 31 31 33 36 39 40 40 41 39 37 35 33 33 33 33 32 32 31 29 28 27 24 23 23 22 20 18 18 18 19 20 21 23
32 32 32 33 34 34 33 32 31 30 30 30 32 34 36 37 39 40 41 40 38 37 35 34 33 32 31 30 29 28 26 24 23 22 22 21 20 20 20 20 19 20 21
32 33 34 35 36 35 34 30 28 28 28 28 30 32 34 35 37 38 40 40 39 37 34 32 32 31 30 29 29 28 26 24 22 21 22 22 22 22 22 22 22 22 22
33 34 36 37 37 35 33 29 28 27 26 27 28 30 31 32 34 35 36 38 38 37 35 33 32 32 31 30 29 29 28 25 24 24 23 23 24 23 22 22 23 24 24
35 37 38 38 36 35 32 30 29 28 28 28 28 28 28 29 31 32 33 35 36 36 35 34 33 33 32 31 30 30 30 28 27 26 25 25 24 23 22 21 22 23 24
36 36 36 35 34 33 32 32 32 32 31 30 30 29 28 28 28 29 31 33 33 34 34 34 34 33 33 32 31 31 32 32 30 28 26 25 24 23 21 20 21 22 23
32 32 32 33 34 34 34 35 35 36 35 33 32 31 30 29 28 28 29 30 31 33 33 33 33 34 34 33 32 32 32 32 32 30 28 26 24 23 21 20 19 19 20
31 32 34 36 37 38 38 39 39 39 38 37 36 35 34 33 32 30 29 29 29 31 32 32 32 33 33 33 32 31 31 31 31 30 29 26 25 22 20 18 17 17 17
34 36 38 39 40 41 42 42 42 42 41 41 39 38 38 37 36 35 33 32 31 30 30 31 31 31 31 32 32 30 29 30 30 29 28 26 25 23 20 18 17 16 16
37 38 40 41 42 43 44 44 44 44 44 43 42 42 42 41 41 41 39 38 36 34 33 32 32 31 31 31 32 31 30 29 29 29 29 27 26 24 22 20 18 17 15
38 39 40 41 43 44 45 46 47 47 47 47 46 46 45 45 46 46 46 44 42 40 38 36 34 33 32 31 32 32 31 31 31 31 30 29 28 26 24 23 20 18 17
38 40 41 43 45 47 49 50 52 52 52 52 51 51 50 50 49 50 50 50 49 47 44 42 40 38 36 34 33 33 34 34 34 34 33 32 30 28 27 25 22 20 19
Wind_Direction
351 341 338 357 357 342 333 323 311 306 308 307 296 278 264 249 210 161 154 160 171 355 360 1 1 357 327 242 205 188 170 152 141 134 119 108 104 101 105 121 129 119 111
330 323 329 3 12 356 338 324 312 306 306 305 299 283 270 260 248 230 217 229 257 286 312 334 348 356 349 273 224 211 204 191 162 156 142 116 109 109 109 111 119 126 124
319 316 330 358 4 353 330 314 308 304 303 302 297 285 273 266 262 261 259 262 269 277 285 304 325 342 351 331 231 222 218 218 212 179 163 135 122 116 116 125 134 142 143
326 325 338 355 357 348 330 313 306 304 302 300 294 285 275 270 270 272 274 275 276 276 276 280 292 308 318 320 270 231 224 225 235 232 200 196 182 165 148 144 158 177 178
328 332 339 342 340 336 327 317 309 304 300 295 289 280 273 269 271 274 278 279 278 275 272 269 270 278 287 286 282 272 251 233 238 242 242 238 232 222 215 208 205 199 195
319 325 330 330 328 324 320 315 308 302 296 291 285 280 275 272 273 275 277 277 275 273 269 265 262 262 266 269 268 267 268 262 252 247 250 252 249 242 236 232 227 221 213
309 316 321 323 323 320 317 313 307 302 298 293 287 283 281 279 278 277 276 275 273 270 267 263 258 255 255 257 257 259 262 264 262 256 252 253 253 250 245 242 237 230 225
305 312 316 317 317 316 314 311 307 302 299 295 292 287 285 283 282 280 277 275 272 269 266 262 258 254 252 252 252 253 256 260 261 260 256 254 253 253 249 244 240 235 229
302 307 311 312 312 312 310 309 306 301 297 294 291 288 286 284 283 281 277 274 270 267 265 261 259 256 253 251 251 251 252 256 260 260 258 256 254 253 251 246 241 236 231
298 302 306 308 309 309 309 307 304 299 296 292 288 286 285 283 281 278 275 271 268 266 264 261 259 257 255 253 253 253 252 253 257 259 258 255 253 251 250 248 244 238 232
295 298 302 304 307 308 310 309 304 298 293 289 284 282 281 280 278 275 271 268 267 265 265 263 261 259 257 256 255 255 255 254 255 255 255 254 252 249 247 247 246 243 237
292 295 298 300 304 308 312 312 308 301 294 288 283 279 278 277 275 272 268 265 264 263 264 265 264 262 259 257 256 257 258 258 259 260 260 262 260 255 250 247 246 246 243
288 291 295 297 302 307 312 312 310 303 294 288 282 278 277 276 274 270 267 263 261 259 261 264 264 263 260 258 258 260 262 263 263 262 262 262 261 258 254 250 247 247 246
286 290 293 296 301 308 310 309 306 303 298 291 283 277 276 275 273 271 267 266 266 263 261 262 262 261 260 259 261 264 266 267 262 257 255 258 258 254 253 253 251 251 249
288 290 293 297 302 305 306 306 305 299 295 290 285 279 276 274 273 270 267 266 265 264 264 261 260 259 257 257 261 265 266 265 258 250 247 251 252 253 251 254 256 255 253
287 289 292 295 300 303 306 304 305 300 294 290 285 282 277 274 272 269 265 265 263 263 263 261 260 259 256 255 257 261 263 261 253 246 242 244 249 253 250 250 251 250 250
285 287 290 294 298 301 305 304 303 301 297 292 289 284 279 275 272 269 265 265 266 265 263 261 259 258 255 253 254 256 258 256 247 245 243 245 250 253 253 251 250 249 249
285 287 290 294 297 301 303 303 301 301 298 297 295 289 283 277 274 272 269 267 267 265 263 260 258 257 254 252 252 253 253 252 247 245 246 250 253 254 254 252 252 251 251
288 290 292 295 297 300 301 299 298 300 299 298 297 293 288 282 277 272 269 268 266 266 264 260 257 254 253 252 252 251 251 250 249 247 249 252 254 254 252 249 250 250 250
293 294 295 297 298 299 298 298 298 298 298 296 295 292 289 286 282 276 271 270 266 264 261 257 255 253 253 253 252 251 250 250 251 251 251 253 253 251 250 249 248 248 249
299 299 299 299 299 298 297 296 295 295 294 293 291 288 286 284 283 280 274 270 266 261 259 258 256 254 252 251 251 250 250 250 249 250 251 251 249 247 248 248 248 250 250
302 301 301 300 299 297 295 294 293 291 290 289 288 285 283 280 278 277 275 270 267 263 259 258 257 254 252 250 249 248 248 247 247 247 247 246 244 243 244 245 247 249 252
302 301 299 298 296 294 293 291 290 288 286 285 283 280 278 276 274 272 270 269 267 266 262 258 256 255 253 250 248 245 245 245 244 242 242 241 240 240 240 242 244 248 251
299 298 297 296 294 293 291 290 288 287 285 283 281 277 274 271 269 267 266 265 264 263 262 259 257 255 252 250 246 243 242 241 239 238 237 236 236 235 236 238 241 245 249
297 297 296 296 294 293 291 290 288 286 284 282 279 277 274 270 267 264 263 261 261 260 259 258 256 254 252 249 246 243 240 238 235 234 233 233 233 233 234 236 238 243 247
298 298 297 296 294 293 291 290 288 287 285 283 280 276 273 270 267 265 262 260 259 258 257 256 255 253 251 248 245 242 240 237 234 232 231 231 232 232 234 235 236 241 246
Height
5921 5919 5919 5918 5918 5917 5917 5917 5918 5918 5917 5916 5915 5913 5912 5911 5910 5909 5908 5907 5907 5906 5906 5905 5904 5903 5902 5901 5901 5900 5900 5900 5899 5899 5898 5897 5897 5897 5897 5897 5897 5897 5898
5920 5918 5918 5917 5917 5917 5917 5917 5917 5917 5916 5915 5914 5913 5912 5910 5909 5908 5908 5907 5906 5906 5905 5904 5904 5902 5901 5901 5901 5901 5900 5900 5899 5899 5898 5898 5897 5897 5897 5897 5897 5898 5898
5919 5918 5917 5916 5916 5917 5916 5916 5915 5915 5914 5914 5913 5912 5911 5910 5909 5909 5908 5907 5906 5905 5904 5904 5903 5902 5900 5900 5900 5900 5900 5900 5899 5899 5898 5898 5898 5898 5898 5897 5898 5898 5898
5918 5917 5916 5916 5916 5916 5915 5915 5914 5914 5913 5912 5912 5911 5910 5909 5908 5908 5907 5906 5905 5904 5903 5902 5901 5901 5900 5899 5899 5899 5899 5899 5899 5898 5898 5898 5897 5898 5898 5898 5898 5898 5899
5917 5916 5915 5915 5915 5914 5914 5914 5913 5912 5912 5911 5910 5909 5908 5907 5907 5906 5905 5904 5903 5902 5902 5901 5900 5899 5899 5898 5897 5897 5898 5898 5898 5898 5898 5898 5898 5898 5898 5898 5898 5898 5898
5916 5915 5915 5914 5914 5913 5913 5912 5912 5911 5910 5909 5908 5907 5906 5905 5904 5903 5903 5902 5901 5900 5899 5899 5898 5898 5897 5897 5896 5896 5896 5897 5897 5897 5897 5897 5897 5898 5898 5898 5898 5898 5898
5914 5914 5913 5913 5913 5912 5911 5910 5909 5908 5907 5905 5904 5904 5903 5902 5901 5900 5899 5898 5897 5896 5896 5896 5895 5895 5895 5895 5894 5894 5895 5895 5895 5896 5896 5896 5896 5897 5897 5898 5898 5898 5898
5912 5912 5911 5911 5911 5910 5909 5908 5906 5904 5903 5901 5900 5899 5898 5897 5896 5895 5894 5894 5893 5892 5892 5892 5892 5891 5891 5892 5892 5892 5892 5893 5893 5894 5894 5894 5895 5895 5896 5896 5896 5897 5897
5910 5909 5908 5908 5907 5906 5905 5903 5902 5900 5898 5896 5895 5894 5892 5891 5890 5889 5889 5888 5888 5887 5887 5887 5887 5887 5887 5888 5888 5888 5889 5889 5890 5890 5891 5892 5892 5893 5893 5894 5894 5894 5895
5908 5907 5905 5904 5903 5901 5900 5898 5896 5894 5892 5890 5888 5887 5886 5884 5883 5882 5882 5882 5882 5881 5881 5881 5881 5882 5882 5883 5883 5884 5884 5885 5886 5886 5887 5888 5888 5889 5889 5890 5890 5891 5892
5906 5904 5902 5901 5899 5897 5894 5892 5889 5886 5884 5883 5881 5880 5878 5877 5876 5875 5875 5875 5875 5875 5875 5875 5876 5876 5876 5877 5878 5878 5879 5880 5880 5880 5881 5882 5882 5883 5884 5885 5886 5886 5887
5902 5901 5899 5897 5895 5892 5889 5886 5882 5878 5876 5874 5873 5871 5870 5869 5868 5867 5867 5868 5868 5869 5869 5869 5869 5870 5870 5871 5872 5872 5873 5873 5874 5874 5874 5875 5876 5877 5878 5879 5880 5881 5883
5898 5897 5895 5893 5891 5888 5885 5881 5876 5872 5868 5866 5864 5863 5862 5861 5860 5859 5859 5859 5860 5861 5862 5862 5863 5863 5864 5865 5865 5866 5866 5867 5867 5868 5869 5870 5870 5871 5872 5873 5874 5876 5877
5894 5892 5890 5888 5886 5883 5880 5876 5871 5867 5863 5859 5857 5855 5854 5853 5852 5852 5852 5852 5853 5854 5855 5855 5856 5856 5857 5858 5858 5859 5860 5860 5861 5862 5863 5865 5865 5866 5867 5867 5868 5870 5872
5889 5887 5885 5883 5880 5878 5874 5870 5865 5860 5857 5853 5850 5848 5846 5846 5845 5844 5844 5845 5846 5847 5847 5848 5849 5849 5850 5851 5852 5853 5854 5854 5855 5856 5858 5859 5860 5861 5862 5863 5864 5865 5867
5884 5882 5879 5877 5875 5872 5868 5863 5859 5855 5851 5847 5844 5841 5839 5837 5837 5836 5836 5837 5838 5839 5839 5840 5841 5842 5843 5844 5846 5847 5848 5848 5849 5850 5852 5854 5855 5856 5857 5859 5860 5861 5862
5878 5876 5874 5871 5868 5864 5861 5857 5853 5849 5845 5841 5838 5835 5831 5829 5828 5828 5828 5829 5830 5831 5832 5833 5834 5834 5836 5837 5839 5841 5842 5843 5843 5845 5846 5847 5849 5851 5852 5854 5855 5857 5858
5872 5870 5867 5864 5861 5857 5854 5850 5847 5843 5839 5835 5831 5828 5824 5822 5820 5820 5820 5821 5822 5823 5824 5826 5827 5828 5829 5830 5832 5834 5836 5837 5838 5839 5840 5842 5844 5846 5847 5849 5850 5852 5853
5865 5862 5859 5856 5853 5849 5846 5843 5840 5837 5833 5829 5825 5822 5819 5816 5814 5813 5813 5814 5814 5815 5817 5818 5820 5821 5822 5823 5825 5827 5829 5830 5832 5833 5835 5836 5838 5840 5842 5843 5845 5846 5848
5857 5854 5850 5847 5844 5841 5838 5836 5832 5829 5826 5823 5819 5816 5813 5811 5808 5807 5807 5807 5807 5808 5809 5811 5812 5813 5815 5816 5818 5820 5822 5824 5825 5827 5829 5831 5833 5835 5836 5838 5840 5841 5842
5848 5845 5842 5839 5836 5833 5830 5828 5825 5821 5818 5816 5813 5810 5807 5804 5802 5801 5800 5799 5799 5800 5802 5803 5804 5806 5807 5808 5810 5812 5814 5816 5819 5821 5823 5825 5828 5829 5831 5833 5835 5836 5837
5840 5837 5834 5831 5828 5825 5822 5818 5815 5812 5809 5807 5804 5802 5799 5797 5795 5794 5793 5792 5792 5793 5793 5795 5796 5798 5799 5801 5803 5805 5807 5810 5812 5814 5817 5819 5822 5824 5826 5828 5830 5831 5833
5833 5829 5826 5822 5818 5815 5812 5808 5805 5802 5799 5797 5794 5792 5790 5788 5787 5786 5785 5785 5785 5785 5786 5787 5788 5790 5791 5793 5795 5797 5799 5802 5805 5808 5810 5813 5816 5819 5822 5824 5826 5827 5828
5826 5822 5818 5813 5809 5805 5801 5797 5794 5791 5788 5786 5784 5782 5780 5779 5777 5776 5776 5776 5776 5777 5777 5778 5780 5781 5783 5785 5787 5790 5792 5795 5798 5801 5804 5807 5810 5813 5816 5819 5821 5823 5825
5819 5814 5809 5805 5800 5795 5790 5786 5782 5779 5776 5774 5772 5770 5769 5767 5766 5765 5765 5765 5766 5767 5768 5769 5771 5772 5774 5777 5779 5782 5785 5787 5790 5794 5798 5801 5804 5807 5811 5813 5816 5819 5821
5811 5806 5801 5796 5790 5784 5779 5774 5769 5766 5762 5760 5758 5756 5755 5754 5753 5753 5752 5753 5753 5755 5757 5759 5761 5763 5765 5767 5770 5773 5776 5780 5783 5787 5790 5794 5797 5801 5804 5808 5811 5813 5816